SV2RIM-2 Weather Reports


time (UTC)temp
C
wind
direction
speed
KPH
gust
KPH
rain 1hr
cm
rain 24hr
cm
rain mn
cm
humidity
%
barometer
mb
20230128005017 3 267 8.0 19.3 0.00 0.23 0.00 66 1008.2
20230128004017 3 248 6.4 19.3 0.00 0.23 0.00 67 1008.2
20230128003017 3 297 6.4 22.5 0.00 0.23 0.00 67 1008.1
20230128002017 3 276 6.4 16.1 0.00 0.23 0.00 67 1008.0
20230128001017 3 255 6.4 16.1 0.00 0.23 0.00 67 1007.9
20230128000020 3 258 8.0 20.9 0.00 0.23 0.00 67 1007.8
20230127235038 3 251 8.0 19.3 0.00 0.23 0.00 68 1007.8
20230127234017 3 307 6.4 16.1 0.00 0.23 0.00 68 1007.7
20230127233017 3 326 6.4 20.9 0.00 0.23 0.00 68 1007.7
20230127232017 3 299 4.8 14.5 0.00 0.23 0.00 68 1007.6
20230127231037 3 259 8.0 17.7 0.00 0.23 0.00 68 1007.6
20230127230017 3 271 4.8 11.3 0.00 0.23 0.00 69 1007.7
20230127225017 3 316 4.8 11.3 0.00 0.23 0.00 68 1007.7
20230127224017 3 306 3.2 8.0 0.00 0.23 0.00 68 1007.6
20230127223037 3 305 4.8 19.3 0.00 0.23 0.00 69 1007.6
20230127222017 3 285 3.2 9.7 0.00 0.23 0.00 68 1007.6
20230127221023 3 251 4.8 12.9 0.00 0.23 0.00 68 1007.6
20230127220018 3 249 6.4 11.3 0.00 0.23 0.00 68 1007.5
20230127215038 3 334 6.4 17.7 0.00 0.23 0.23 70 1007.4
20230127214017 3 308 6.4 16.1 0.00 0.23 0.23 69 1007.4
20230127213017 3 242 3.2 11.3 0.00 0.23 0.23 70 1007.4
20230127212016 3 267 3.2 8.0 0.00 0.23 0.23 70 1007.4
20230127211017 3 335 1.6 4.8 0.03 0.23 0.23 70 1007.3
20230127210017 3 255 1.6 11.3 0.03 0.23 0.23 70 1007.2
20230127205018 3 247 4.8 9.7 0.03 0.23 0.23 70 1007.1
20230127204018 3 317 4.8 11.3 0.03 0.23 0.23 71 1007.0
20230127203017 3 336 3.2 11.3 0.03 0.23 0.23 70 1006.9
20230127202017 3 298 4.8 11.3 0.03 0.23 0.23 70 1006.9
20230127201017 3 331 4.8 16.1 0.00 0.20 0.20 71 1006.8
20230127200017 3 322 4.8 14.5 0.00 0.20 0.20 72 1006.8
20230127195017 3 332 1.6 4.8 0.00 0.20 0.20 72 1006.8
20230127194017 3 348 3.2 6.4 0.00 0.20 0.20 72 1006.7
20230127193017 3 342 4.8 9.7 0.00 0.20 0.20 73 1006.6
20230127192018 3 334 3.2 9.7 0.00 0.20 0.20 74 1006.6
20230127191017 3 349 4.8 11.3 0.00 0.20 0.20 74 1006.5
20230127190037 2 339 3.2 9.7 0.00 0.20 0.20 75 1006.5
20230127185017 2 324 3.2 9.7 0.00 0.20 0.20 77 1006.5
20230127184017 2 346 4.8 9.7 0.00 0.20 0.20 77 1006.5
20230127183017 2 329 3.2 8.0 0.00 0.20 0.20 78 1006.4
20230127182017 3 320 3.2 6.4 0.00 0.20 0.20 77 1006.4
20230127181018 3 328 3.2 6.4 0.00 0.20 0.20 78 1006.4
20230127180037 3 340 1.6 6.4 0.00 0.20 0.20 79 1006.4
20230127175037 3 346 3.2 6.4 0.00 0.20 0.20 79 1006.3
20230127174017 3 336 1.6 4.8 0.00 0.23 0.20 79 1006.3
20230127173018 3 333 1.6 4.8 0.00 0.23 0.20 80 1006.3
20230127172017 4 327 3.2 6.4 0.00 0.23 0.20 81 1006.2
20230127171017 5 239 1.6 3.2 0.00 0.23 0.20 79 1006.1
20230127170038 5 199 1.6 4.8 0.00 0.23 0.20 78 1006.0
20230127165057 5 235 0.0 1.6 0.00 0.23 0.20 77 1005.9
20230127164037 5 224 1.6 3.2 0.00 0.23 0.20 77 1005.8
20230127163037 5 250 3.2 6.4 0.00 0.23 0.20 77 1005.6
20230127162037 5 332 3.2 8.0 0.00 0.23 0.20 79 1005.4
20230127161017 5 317 3.2 8.0 0.00 0.23 0.20 80 1005.3
20230127160017 6 326 3.2 6.4 0.08 0.23 0.20 81 1005.3
20230127155016 6 335 3.2 6.4 0.08 0.23 0.20 82 1005.2
20230127154017 6 342 3.2 8.0 0.08 0.23 0.20 84 1005.1
20230127153016 7 330 0.0 4.8 0.10 0.23 0.20 84 1005.1
20230127152017 8 238 0.0 1.6 0.10 0.23 0.20 84 1004.9
20230127151037 8 263 0.0 1.6 0.10 0.23 0.20 83 1004.8
20230127150018 8 249 0.0 1.6 0.03 0.13 0.10 82 1004.8
20230127145017 10 216 0.0 3.2 0.03 0.13 0.10 79 1004.7
20230127144057 9 233 0.0 1.6 0.03 0.13 0.10 82 1004.7
20230127143017 8 240 0.0 1.6 0.00 0.10 0.08 83 1004.6
20230127142038 8 197 1.6 4.8 0.00 0.10 0.08 84 1004.6
20230127141017 9 223 0.0 1.6 0.00 0.10 0.08 83 1004.4
20230127140017 8 245 0.0 3.2 0.00 0.10 0.08 84 1004.3
20230127135017 8 209 1.6 3.2 0.00 0.10 0.08 86 1004.3
20230127134017 9 331 0.0 3.2 0.00 0.10 0.08 86 1004.2
20230127133017 10 249 0.0 3.2 0.00 0.10 0.08 85 1004.1
20230127132017 9 269 1.6 3.2 0.03 0.10 0.08 87 1003.9
20230127131017 10 238 1.6 3.2 0.03 0.10 0.08 86 1003.9
20230127130017 10 230 1.6 3.2 0.03 0.10 0.08 84 1003.9
20230127125017 9 204 1.6 4.8 0.03 0.10 0.08 86 1003.9
20230127124038 9 205 1.6 4.8 0.05 0.10 0.08 88 1004.0
20230127123017 9 211 1.6 3.2 0.05 0.10 0.08 88 1004.0
20230127122018 9 250 0.0 4.8 0.03 0.08 0.05 90 1004.0
20230127121017 10 252 1.6 3.2 0.03 0.08 0.05 91 1003.9
20230127120017 10 315 1.6 4.8 0.03 0.08 0.05 94 1003.9
20230127115017 11 266 1.6 4.8 0.03 0.08 0.05 90 1003.9
20230127114017 9 268 1.6 6.4 0.00 0.05 0.03 90 1004.0
20230127113017 9 290 1.6 4.8 0.00 0.05 0.03 90 1003.9
20230127112017 8 296 1.6 4.8 0.00 0.08 0.03 92 1004.1
20230127111017 8 273 1.6 3.2 0.00 0.08 0.03 95 1004.2
20230127110017 8 269 1.6 3.2 0.00 0.08 0.03 98 1004.3
20230127105017 10 301 1.6 3.2 0.00 0.08 0.03 100 1004.5
20230127104020 11 280 0.0 1.6 0.00 0.08 0.03 97 1004.5
20230127103017 9 242 3.2 9.7 0.00 0.08 0.03 95 1004.6
20230127102037 10 255 3.2 8.0 0.00 0.08 0.03 93 1004.7
20230127101017 9 241 4.8 12.9 0.00 0.13 0.03 92 1004.8
20230127100017 8 251 4.8 11.3 0.00 0.13 0.03 90 1004.8
20230127095017 9 242 3.2 8.0 0.00 0.18 0.03 84 1005.0
20230127094017 11 253 1.6 8.0 0.00 0.18 0.03 73 1005.1
20230127093017 9 227 0.0 3.2 0.00 0.23 0.03 75 1005.2
20230127092017 7 200 1.6 6.4 0.00 0.23 0.03 83 1005.3
20230127091017 7 200 1.6 4.8 0.00 0.25 0.03 82 1005.4
20230127090020 8 205 1.6 6.4 0.00 0.25 0.03 76 1005.3
20230127085017 7 191 1.6 4.8 0.00 0.25 0.03 80 1005.3
20230127084017 6 201 1.6 3.2 0.00 0.28 0.03 82 1005.4
20230127083017 6 221 1.6 3.2 0.00 0.30 0.03 80 1005.4
20230127082017 6 243 3.2 8.0 0.00 0.30 0.03 80 1005.4
20230127081017 5 248 3.2 8.0 0.00 0.30 0.03 79 1005.5
20230127080017 5 247 4.8 11.3 0.00 0.33 0.03 80 1005.6
20230127075017 5 246 4.8 12.9 0.00 0.33 0.03 80 1005.6
20230127074017 5 250 4.8 12.9 0.00 0.38 0.03 81 1005.5
20230127073017 5 324 4.8 9.7 0.00 0.38 0.03 80 1005.4
20230127072017 5 272 4.8 12.9 0.00 0.38 0.03 81 1005.4
20230127071037 4 315 4.8 12.9 0.03 0.43 0.03 81 1005.3
20230127070017 4 316 6.4 14.5 0.03 0.43 0.03 81 1005.5
20230127065018 4 316 6.4 16.1 0.03 0.46 0.03 81 1005.5
20230127064017 3 320 6.4 12.9 0.03 0.46 0.03 82 1005.4
20230127063017 3 322 6.4 12.9 0.03 0.46 0.03 83 1005.5
20230127062037 3 301 4.8 9.7 0.03 0.46 0.03 84 1005.6
20230127061017 3 337 3.2 9.7 0.00 0.43 0.00 84 1005.6
20230127060018 3 316 3.2 9.7 0.00 0.43 0.00 86 1005.7
20230127055017 3 335 1.6 6.4 0.00 0.43 0.00 87 1005.6
20230127054017 3 335 1.6 3.2 0.00 0.43 0.00 87 1005.7
20230127053037 3 230 0.0 1.6 0.00 0.43 0.00 88 1005.7
20230127052018 3 267 0.0 3.2 0.00 0.43 0.00 88 1005.7
20230127051037 3 0.0 0.0 0.00 0.43 0.00 87 1005.7
20230127050057 3 246 0.0 0.0 0.00 0.43 0.00 85 1005.6
20230127045017 3 202 0.0 3.2 0.00 0.43 0.00 85 1005.4
20230127044017 3 232 0.0 1.6 0.00 0.43 0.00 84 1005.2
20230127043017 4 195 1.6 4.8 0.00 0.43 0.00 83 1005.1
20230127042017 4 226 1.6 3.2 0.00 0.43 0.00 83 1005.0
20230127041017 4 183 1.6 4.8 0.00 0.43 0.00 81 1004.9
20230127040017 4 319 1.6 6.4 0.00 0.43 0.00 81 1004.7
20230127035017 4 335 4.8 11.3 0.00 0.43 0.00 81 1004.5
20230127034037 4 326 6.4 17.7 0.00 0.43 0.00 81 1004.4
20230127033017 4 323 8.0 14.5 0.00 0.43 0.00 80 1004.3
20230127032037 4 302 6.4 16.1 0.00 0.46 0.00 80 1004.2
20230127031017 4 305 8.0 17.7 0.00 0.48 0.00 81 1004.3
20230127030017 3 334 8.0 19.3 0.00 0.48 0.00 82 1004.6
20230127025017 3 329 6.4 16.1 0.00 0.51 0.00 83 1004.8
20230127024017 3 343 3.2 6.4 0.00 0.53 0.00 83 1005.1
20230127023017 4 343 3.2 6.4 0.00 0.58 0.00 83 1005.2
20230127022017 4 287 1.6 6.4 0.00 0.58 0.00 83 1005.3
20230127021017 3 334 1.6 6.4 0.00 0.61 0.00 84 1005.3
20230127020017 3 300 1.6 4.8 0.00 0.61 0.00 83 1005.6
20230127015017 3 298 0.0 1.6 0.00 0.64 0.00 83 1005.8
20230127014017 3 344 3.2 6.4 0.00 0.64 0.00 83 1005.9
20230127013017 3 312 3.2 8.0 0.00 0.66 0.00 83 1006.0
20230127012017 3 309 3.2 6.4 0.00 0.66 0.00 83 1006.0
20230127011017 3 301 1.6 4.8 0.00 0.66 0.00 83 1006.0
20230127010017 3 342 3.2 8.0 0.00 0.66 0.00 82 1005.9